PWSweather.com
Personal Weather Stations
Station Observations
STEFBZH56
PontScorff, PontScorffFR

PontScorffPontScorffFR

Lat: 47.831518, Lon: -3.4222200000000385

Elevation: 141

Station Type: Oregon WMR200

http://www.meteo-pontscorff.fr

High Low Average
Temperature 62.2°F16.8°C 53.6°F12.0°C 59.4°F15.2°C
Dew Point 61.7°F16.5°C 53.0°F11.7°C 58.8°F14.9°C
Winds 6.9 mph 11.1 kmh Calm Calm 3.0 mph S4.8 kmh S
Wind Gusts 17.2 mph27.7 kmh -- 7.0 mph11.3 kmh
Humidity 98% 98% 98%
Pressure 29.95 in1014.2 mb 29.77 in1008.1 mb -
Precipitation 0.63 in16.0 mm - -
Hour Temp Dew Point Humidity Winds Wind Gusts Pressure Precip Precip Rate Daily Precip Total
12:00 AM 55.4°F13.0°C 54.8°F12.7°C 98% 0.2 mph S0.3 kmh S 2.5 mph4.0 kmh 29.89 in1012.2 mb 0.00 in0.0 mm 0.00 in0.0 mm 0.00 in0.0 mm
12:05 AM 55.2°F12.9°C 54.7°F12.6°C 98% 0.7 mph SSE1.1 kmh SSE 1.8 mph2.9 kmh 29.89 in1012.2 mb 0.00 in0.0 mm 0.00 in0.0 mm 0.00 in0.0 mm
12:10 AM 55.2°F12.9°C 54.7°F12.6°C 98% 0.2 mph SE0.3 kmh SE 1.8 mph2.9 kmh 29.89 in1012.2 mb 0.00 in0.0 mm 0.00 in0.0 mm 0.00 in0.0 mm
12:15 AM 55.2°F12.9°C 54.7°F12.6°C 98% 0.2 mph SSE0.3 kmh SSE 1.8 mph2.9 kmh 29.89 in1012.2 mb 0.00 in0.0 mm 0.00 in0.0 mm 0.00 in0.0 mm
12:20 AM 55.1°F12.8°C 54.5°F12.5°C 98% 0.4 mph S0.6 kmh S 2.5 mph4.0 kmh 29.89 in1012.2 mb 0.00 in0.0 mm 0.00 in0.0 mm 0.00 in0.0 mm
12:25 AM 55.1°F12.8°C 54.6°F12.6°C 98% 0.7 mph SSW1.1 kmh SSW 2.7 mph4.3 kmh 29.89 in1012.2 mb 0.00 in0.0 mm 0.00 in0.0 mm 0.00 in0.0 mm
12:30 AM 55.1°F12.8°C 54.5°F12.5°C 98% Calm Calm 1.3 mph2.1 kmh 29.89 in1012.2 mb 0.00 in0.0 mm 0.00 in0.0 mm 0.00 in0.0 mm
12:35 AM 55.0°F12.8°C 54.5°F12.5°C 98% 0.2 mph S0.3 kmh S 2.0 mph3.2 kmh 29.89 in1012.2 mb 0.00 in0.0 mm 0.00 in0.0 mm 0.00 in0.0 mm
12:40 AM 55.0°F12.8°C 54.4°F12.4°C 98% 0.1 mph S0.2 kmh S 1.3 mph2.1 kmh 29.89 in1012.2 mb 0.00 in0.0 mm 0.00 in0.0 mm 0.00 in0.0 mm
12:45 AM 54.9°F12.7°C 54.3°F12.4°C 98% 0.1 mph SSE0.2 kmh SSE 1.8 mph2.9 kmh 29.89 in1012.2 mb 0.00 in0.0 mm 0.00 in0.0 mm 0.00 in0.0 mm
12:50 AM 54.9°F12.7°C 54.3°F12.4°C 98% 0.1 mph SE0.2 kmh SE 1.3 mph2.1 kmh 29.87 in1011.5 mb 0.00 in0.0 mm 0.00 in0.0 mm 0.00 in0.0 mm
12:55 AM 54.7°F12.6°C 54.1°F12.3°C 98% 0.3 mph SE0.5 kmh SE 1.6 mph2.6 kmh 29.86 in1011.2 mb 0.00 in0.0 mm 0.00 in0.0 mm 0.00 in0.0 mm
01:00 AM 54.6°F12.6°C 54.0°F12.2°C 98% Calm Calm 1.1 mph1.8 kmh 29.86 in1011.2 mb 0.00 in0.0 mm 0.00 in0.0 mm 0.00 in0.0 mm
01:05 AM 54.4°F12.4°C 53.8°F12.1°C 98% Calm Calm -- 29.88 in1011.9 mb 0.00 in0.0 mm 0.00 in0.0 mm 0.00 in0.0 mm
01:10 AM 54.3°F12.4°C 53.8°F12.1°C 98% Calm Calm -- 29.89 in1012.2 mb 0.00 in0.0 mm 0.00 in0.0 mm 0.00 in0.0 mm
01:15 AM 54.0°F12.2°C 53.5°F11.9°C 98% Calm Calm -- 29.89 in1012.2 mb 0.00 in0.0 mm 0.00 in0.0 mm 0.00 in0.0 mm
01:20 AM 53.8°F12.1°C 53.2°F11.8°C 98% Calm Calm -- 29.89 in1012.2 mb 0.00 in0.0 mm 0.00 in0.0 mm 0.00 in0.0 mm
01:25 AM 53.8°F12.1°C 53.2°F11.8°C 98% Calm Calm -- 29.89 in1012.2 mb 0.00 in0.0 mm 0.00 in0.0 mm 0.00 in0.0 mm
01:30 AM 53.6°F12.0°C 53.1°F11.7°C 98% Calm Calm -- 29.89 in1012.2 mb 0.00 in0.0 mm 0.00 in0.0 mm 0.00 in0.0 mm
01:35 AM 53.6°F12.0°C 53.0°F11.7°C 98% Calm Calm -- 29.89 in1012.2 mb 0.00 in0.0 mm 0.00 in0.0 mm 0.00 in0.0 mm
01:40 AM 53.6°F12.0°C 53.0°F11.7°C 98% Calm Calm -- 29.89 in1012.2 mb 0.00 in0.0 mm 0.00 in0.0 mm 0.00 in0.0 mm
01:45 AM 53.7°F12.1°C 53.2°F11.8°C 98% Calm Calm -- 29.89 in1012.2 mb 0.00 in0.0 mm 0.00 in0.0 mm 0.00 in0.0 mm
01:50 AM 54.0°F12.2°C 53.4°F11.9°C 98% 0.5 mph SE0.8 kmh SE 2.9 mph4.7 kmh 29.91 in1012.9 mb 0.00 in0.0 mm 0.00 in0.0 mm 0.00 in0.0 mm
01:55 AM 54.1°F12.3°C 53.6°F12.0°C 98% 0.1 mph SE0.2 kmh SE 1.6 mph2.6 kmh 29.92 in1013.2 mb 0.00 in0.0 mm 0.00 in0.0 mm 0.00 in0.0 mm
02:00 AM 54.2°F12.3°C 53.7°F12.1°C 98% 0.1 mph SE0.2 kmh SE 1.8 mph2.9 kmh 29.92 in1013.2 mb 0.00 in0.0 mm 0.00 in0.0 mm 0.00 in0.0 mm
02:05 AM 54.1°F12.3°C 53.6°F12.0°C 98% 0.1 mph ESE0.2 kmh ESE 1.3 mph2.1 kmh 29.92 in1013.2 mb 0.00 in0.0 mm 0.00 in0.0 mm 0.00 in0.0 mm
02:10 AM 54.3°F12.4°C 53.7°F12.1°C 98% 0.6 mph E1.0 kmh E 1.8 mph2.9 kmh 29.92 in1013.2 mb 0.00 in0.0 mm 0.00 in0.0 mm 0.00 in0.0 mm
02:15 AM 54.3°F12.4°C 53.8°F12.1°C 98% 0.2 mph E0.3 kmh E 1.6 mph2.6 kmh 29.92 in1013.2 mb 0.00 in0.0 mm 0.00 in0.0 mm 0.00 in0.0 mm
02:20 AM 54.3°F12.4°C 53.8°F12.1°C 98% 0.6 mph E1.0 kmh E 1.8 mph2.9 kmh 29.90 in1012.5 mb 0.00 in0.0 mm 0.00 in0.0 mm 0.00 in0.0 mm
02:25 AM 54.3°F12.4°C 53.8°F12.1°C 98% Calm Calm 2.0 mph3.2 kmh 29.89 in1012.2 mb 0.00 in0.0 mm 0.00 in0.0 mm 0.00 in0.0 mm
02:30 AM 54.3°F12.4°C 53.8°F12.1°C 98% 0.3 mph ESE0.5 kmh ESE 1.6 mph2.6 kmh 29.89 in1012.2 mb 0.00 in0.0 mm 0.00 in0.0 mm 0.00 in0.0 mm
02:35 AM 54.3°F12.4°C 53.8°F12.1°C 98% 0.4 mph ESE0.6 kmh ESE 1.8 mph2.9 kmh 29.89 in1012.2 mb 0.00 in0.0 mm 0.00 in0.0 mm 0.00 in0.0 mm
02:40 AM 54.4°F12.4°C 53.9°F12.2°C 98% 0.8 mph ESE1.3 kmh ESE 2.5 mph4.0 kmh 29.89 in1012.2 mb 0.00 in0.0 mm 0.00 in0.0 mm 0.00 in0.0 mm
02:45 AM 54.5°F12.5°C 53.9°F12.2°C 98% 1.0 mph ESE1.6 kmh ESE 2.0 mph3.2 kmh 29.89 in1012.2 mb 0.00 in0.0 mm 0.00 in0.0 mm 0.00 in0.0 mm
02:50 AM 54.5°F12.5°C 53.9°F12.2°C 98% 1.2 mph ESE1.9 kmh ESE 2.0 mph3.2 kmh 29.89 in1012.2 mb 0.00 in0.0 mm 0.00 in0.0 mm 0.00 in0.0 mm
02:55 AM 54.5°F12.5°C 53.9°F12.2°C 98% 0.8 mph ESE1.3 kmh ESE 1.8 mph2.9 kmh 29.89 in1012.2 mb 0.00 in0.0 mm 0.00 in0.0 mm 0.00 in0.0 mm
03:00 AM 54.5°F12.5°C 53.9°F12.2°C 98% 1.1 mph E1.8 kmh E 3.1 mph5.0 kmh 29.89 in1012.2 mb 0.00 in0.0 mm 0.00 in0.0 mm 0.00 in0.0 mm
03:05 AM 54.5°F12.5°C 53.9°F12.2°C 98% 0.2 mph ESE0.3 kmh ESE 1.3 mph2.1 kmh 29.89 in1012.2 mb 0.00 in0.0 mm 0.00 in0.0 mm 0.00 in0.0 mm
03:10 AM 54.7°F12.6°C 54.1°F12.3°C 98% 0.7 mph ESE1.1 kmh ESE 2.7 mph4.3 kmh 29.89 in1012.2 mb 0.00 in0.0 mm 0.00 in0.0 mm 0.00 in0.0 mm
03:15 AM 55.1°F12.8°C 54.6°F12.6°C 98% 1.0 mph ESE1.6 kmh ESE 3.8 mph6.1 kmh 29.89 in1012.2 mb 0.00 in0.0 mm 0.00 in0.0 mm 0.00 in0.0 mm
03:20 AM 55.3°F12.9°C 54.7°F12.6°C 98% 1.3 mph SSE2.1 kmh SSE 2.9 mph4.7 kmh 29.91 in1012.9 mb 0.00 in0.0 mm 0.00 in0.0 mm 0.00 in0.0 mm
03:25 AM 55.6°F13.1°C 55.1°F12.8°C 98% 1.1 mph SE1.8 kmh SE 4.3 mph6.9 kmh 29.92 in1013.2 mb 0.00 in0.0 mm 0.00 in0.0 mm 0.00 in0.0 mm
03:30 AM 55.8°F13.2°C 55.2°F12.9°C 98% 0.5 mph SE0.8 kmh SE 2.0 mph3.2 kmh 29.92 in1013.2 mb 0.00 in0.0 mm 0.00 in0.0 mm 0.00 in0.0 mm
03:35 AM 56.0°F13.3°C 55.4°F13.0°C 98% 1.2 mph S1.9 kmh S 3.6 mph5.8 kmh 29.92 in1013.2 mb 0.00 in0.0 mm 0.00 in0.0 mm 0.00 in0.0 mm
03:40 AM 56.1°F13.4°C 55.6°F13.1°C 98% 1.1 mph SE1.8 kmh SE 2.9 mph4.7 kmh 29.92 in1013.2 mb 0.00 in0.0 mm 0.00 in0.0 mm 0.00 in0.0 mm
03:45 AM 56.4°F13.6°C 55.8°F13.2°C 98% 1.2 mph ESE1.9 kmh ESE 3.4 mph5.5 kmh 29.92 in1013.2 mb 0.00 in0.0 mm 0.00 in0.0 mm 0.00 in0.0 mm
03:50 AM 56.5°F13.6°C 55.9°F13.3°C 98% 1.2 mph SE1.9 kmh SE 2.9 mph4.7 kmh 29.90 in1012.5 mb 0.00 in0.0 mm 0.00 in0.0 mm 0.00 in0.0 mm
03:55 AM 56.5°F13.6°C 55.9°F13.3°C 98% 0.4 mph S0.6 kmh S 2.7 mph4.3 kmh 29.89 in1012.2 mb 0.00 in0.0 mm 0.00 in0.0 mm 0.00 in0.0 mm
04:00 AM 56.5°F13.6°C 55.9°F13.3°C 98% 0.9 mph SE1.4 kmh SE 3.4 mph5.5 kmh 29.89 in1012.2 mb 0.00 in0.0 mm 0.00 in0.0 mm 0.00 in0.0 mm
04:05 AM 56.5°F13.6°C 55.9°F13.3°C 98% 0.6 mph ESE1.0 kmh ESE 3.8 mph6.1 kmh 29.89 in1012.2 mb 0.00 in0.0 mm 0.00 in0.0 mm 0.00 in0.0 mm
04:10 AM 56.6°F13.7°C 56.0°F13.3°C 98% 0.5 mph ESE0.8 kmh ESE 2.7 mph4.3 kmh 29.89 in1012.2 mb 0.00 in0.0 mm 0.00 in0.0 mm 0.00 in0.0 mm
04:15 AM 56.4°F13.6°C 55.8°F13.2°C 98% Calm Calm -- 29.89 in1012.2 mb 0.00 in0.0 mm 0.00 in0.0 mm 0.00 in0.0 mm
04:20 AM 56.3°F13.5°C 55.7°F13.2°C 98% 0.6 mph ESE1.0 kmh ESE 2.9 mph4.7 kmh 29.89 in1012.2 mb 0.00 in0.0 mm 0.00 in0.0 mm 0.00 in0.0 mm
04:25 AM 56.4°F13.6°C 55.8°F13.2°C 98% 0.4 mph E0.6 kmh E 2.7 mph4.3 kmh 29.89 in1012.2 mb 0.00 in0.0 mm 0.00 in0.0 mm 0.00 in0.0 mm
04:30 AM 56.5°F13.6°C 55.9°F13.3°C 98% 0.8 mph SE1.3 kmh SE 3.8 mph6.1 kmh 29.89 in1012.2 mb 0.00 in0.0 mm 0.00 in0.0 mm 0.00 in0.0 mm
04:35 AM 56.5°F13.6°C 55.9°F13.3°C 98% 0.2 mph SE0.3 kmh SE 1.3 mph2.1 kmh 29.89 in1012.2 mb 0.00 in0.0 mm 0.00 in0.0 mm 0.00 in0.0 mm
04:40 AM 56.3°F13.5°C 55.8°F13.2°C 98% Calm Calm -- 29.89 in1012.2 mb 0.00 in0.0 mm 0.00 in0.0 mm 0.00 in0.0 mm
04:45 AM 56.4°F13.6°C 55.8°F13.2°C 98% 0.9 mph SE1.4 kmh SE 2.5 mph4.0 kmh 29.89 in1012.2 mb 0.00 in0.0 mm 0.00 in0.0 mm 0.00 in0.0 mm
04:50 AM 56.5°F13.6°C 55.9°F13.3°C 98% 0.4 mph ESE0.6 kmh ESE 2.7 mph4.3 kmh 29.91 in1012.9 mb 0.00 in0.0 mm 0.00 in0.0 mm 0.00 in0.0 mm
04:55 AM 56.6°F13.7°C 56.1°F13.4°C 98% 0.6 mph ESE1.0 kmh ESE 2.9 mph4.7 kmh 29.92 in1013.2 mb 0.00 in0.0 mm 0.00 in0.0 mm 0.00 in0.0 mm
05:00 AM 56.7°F13.7°C 56.2°F13.4°C 98% 0.9 mph ESE1.4 kmh ESE 4.0 mph6.4 kmh 29.92 in1013.2 mb 0.00 in0.0 mm 0.00 in0.0 mm 0.00 in0.0 mm
05:05 AM 56.9°F13.8°C 56.4°F13.6°C 98% 1.2 mph SSE1.9 kmh SSE 2.9 mph4.7 kmh 29.92 in1013.2 mb 0.00 in0.0 mm 0.00 in0.0 mm 0.00 in0.0 mm
05:10 AM 57.0°F13.9°C 56.5°F13.6°C 98% 0.5 mph SE0.8 kmh SE 2.9 mph4.7 kmh 29.92 in1013.2 mb 0.00 in0.0 mm 0.00 in0.0 mm 0.00 in0.0 mm
05:15 AM 56.9°F13.8°C 56.3°F13.5°C 98% 0.6 mph SSE1.0 kmh SSE 3.8 mph6.1 kmh 29.92 in1013.2 mb 0.00 in0.0 mm 0.00 in0.0 mm 0.00 in0.0 mm
05:20 AM 56.9°F13.8°C 56.4°F13.6°C 98% 0.2 mph SE0.3 kmh SE 1.8 mph2.9 kmh 29.92 in1013.2 mb 0.00 in0.0 mm 0.00 in0.0 mm 0.00 in0.0 mm
05:25 AM 57.0°F13.9°C 56.5°F13.6°C 98% 0.7 mph SE1.1 kmh SE 2.0 mph3.2 kmh 29.92 in1013.2 mb 0.00 in0.0 mm 0.00 in0.0 mm 0.00 in0.0 mm
05:30 AM 57.2°F14.0°C 56.6°F13.7°C 98% 0.4 mph SSE0.6 kmh SSE 1.3 mph2.1 kmh 29.92 in1013.2 mb 0.00 in0.0 mm 0.00 in0.0 mm 0.00 in0.0 mm
05:35 AM 57.3°F14.1°C 56.7°F13.7°C 98% 0.6 mph SE1.0 kmh SE 1.3 mph2.1 kmh 29.90 in1012.5 mb 0.00 in0.0 mm 0.00 in0.0 mm 0.00 in0.0 mm
05:40 AM 57.5°F14.2°C 57.0°F13.9°C 98% 1.4 mph SSE2.3 kmh SSE 4.0 mph6.4 kmh 29.89 in1012.2 mb 0.00 in0.0 mm 0.00 in0.0 mm 0.00 in0.0 mm
05:45 AM 57.7°F14.3°C 57.1°F13.9°C 98% 0.6 mph SE1.0 kmh SE 2.9 mph4.7 kmh 29.89 in1012.2 mb 0.00 in0.0 mm 0.00 in0.0 mm 0.00 in0.0 mm
05:50 AM 57.7°F14.3°C 57.2°F14.0°C 98% 0.9 mph SE1.4 kmh SE 3.8 mph6.1 kmh 29.89 in1012.2 mb 0.00 in0.0 mm 0.00 in0.0 mm 0.00 in0.0 mm
05:55 AM 57.8°F14.3°C 57.2°F14.0°C 98% 1.4 mph SE2.3 kmh SE 2.9 mph4.7 kmh 29.89 in1012.2 mb 0.00 in0.0 mm 0.00 in0.0 mm 0.00 in0.0 mm
06:00 AM 57.9°F14.4°C 57.3°F14.1°C 98% 0.6 mph SSE1.0 kmh SSE 3.4 mph5.5 kmh 29.89 in1012.2 mb 0.00 in0.0 mm 0.00 in0.0 mm 0.00 in0.0 mm
06:05 AM 57.9°F14.4°C 57.4°F14.1°C 98% 1.5 mph SE2.4 kmh SE 3.8 mph6.1 kmh 29.89 in1012.2 mb 0.00 in0.0 mm 0.00 in0.0 mm 0.00 in0.0 mm
06:10 AM 57.9°F14.4°C 57.4°F14.1°C 98% 0.8 mph SSE1.3 kmh SSE 2.9 mph4.7 kmh 29.89 in1012.2 mb 0.00 in0.0 mm 0.00 in0.0 mm 0.00 in0.0 mm
06:15 AM 58.0°F14.4°C 57.5°F14.2°C 98% 1.5 mph SSE2.4 kmh SSE 3.8 mph6.1 kmh 29.89 in1012.2 mb 0.00 in0.0 mm 0.00 in0.0 mm 0.00 in0.0 mm
06:20 AM 58.1°F14.5°C 57.5°F14.2°C 98% 1.6 mph S2.6 kmh S 2.9 mph4.7 kmh 29.89 in1012.2 mb 0.00 in0.0 mm 0.00 in0.0 mm 0.00 in0.0 mm
06:25 AM 58.3°F14.6°C 57.7°F14.3°C 98% 2.3 mph SE3.7 kmh SE 5.1 mph8.2 kmh 29.89 in1012.2 mb 0.00 in0.0 mm 0.00 in0.0 mm 0.00 in0.0 mm
06:30 AM 58.4°F14.7°C 57.8°F14.3°C 98% 1.8 mph S2.9 kmh S 3.8 mph6.1 kmh 29.89 in1012.2 mb 0.00 in0.0 mm 0.00 in0.0 mm 0.00 in0.0 mm
06:35 AM 58.4°F14.7°C 57.9°F14.4°C 98% 2.0 mph SW3.2 kmh SW 3.8 mph6.1 kmh 29.89 in1012.2 mb 0.00 in0.0 mm 0.00 in0.0 mm 0.00 in0.0 mm
06:40 AM 58.5°F14.7°C 57.9°F14.4°C 98% 1.9 mph SSE3.1 kmh SSE 3.8 mph6.1 kmh 29.89 in1012.2 mb 0.00 in0.0 mm 0.00 in0.0 mm 0.00 in0.0 mm
06:45 AM 58.5°F14.7°C 57.9°F14.4°C 98% 1.8 mph S2.9 kmh S 3.6 mph5.8 kmh 29.89 in1012.2 mb 0.00 in0.0 mm 0.00 in0.0 mm 0.00 in0.0 mm
06:50 AM 58.6°F14.8°C 58.1°F14.5°C 98% 3.1 mph S5.0 kmh S 7.4 mph11.9 kmh 29.87 in1011.5 mb 0.00 in0.0 mm 0.00 in0.0 mm 0.00 in0.0 mm
06:55 AM 58.6°F14.8°C 58.1°F14.5°C 98% 2.3 mph S3.7 kmh S 5.4 mph8.7 kmh 29.86 in1011.2 mb 0.00 in0.0 mm 0.00 in0.0 mm 0.00 in0.0 mm
07:00 AM 58.6°F14.8°C 58.1°F14.5°C 98% 2.0 mph SSE3.2 kmh SSE 2.9 mph4.7 kmh 29.86 in1011.2 mb 0.00 in0.0 mm 0.00 in0.0 mm 0.00 in0.0 mm
07:05 AM 58.8°F14.9°C 58.2°F14.6°C 98% 2.3 mph SW3.7 kmh SW 4.3 mph6.9 kmh 29.88 in1011.9 mb 0.00 in0.0 mm 0.00 in0.0 mm 0.00 in0.0 mm
07:10 AM 58.8°F14.9°C 58.3°F14.6°C 98% 1.8 mph S2.9 kmh S 3.8 mph6.1 kmh 29.89 in1012.2 mb 0.00 in0.0 mm 0.00 in0.0 mm 0.00 in0.0 mm
07:15 AM 58.8°F14.9°C 58.3°F14.6°C 98% 2.5 mph S4.0 kmh S 4.5 mph7.2 kmh 29.89 in1012.2 mb 0.00 in0.0 mm 0.00 in0.0 mm 0.00 in0.0 mm
07:20 AM 58.8°F14.9°C 58.3°F14.6°C 98% 1.0 mph S1.6 kmh S 3.4 mph5.5 kmh 29.89 in1012.2 mb 0.00 in0.0 mm 0.00 in0.0 mm 0.00 in0.0 mm
07:25 AM 58.8°F14.9°C 58.3°F14.6°C 98% 1.0 mph S1.6 kmh S 3.4 mph5.5 kmh 29.89 in1012.2 mb 0.00 in0.0 mm 0.00 in0.0 mm 0.00 in0.0 mm
07:30 AM 58.8°F14.9°C 58.3°F14.6°C 98% 1.9 mph S3.1 kmh S 4.3 mph6.9 kmh 29.89 in1012.2 mb 0.00 in0.0 mm 0.00 in0.0 mm 0.00 in0.0 mm
07:35 AM 59.0°F15.0°C 58.4°F14.7°C 98% 2.7 mph S4.3 kmh S 4.5 mph7.2 kmh 29.89 in1012.2 mb 0.00 in0.0 mm 0.00 in0.0 mm 0.00 in0.0 mm
07:40 AM 59.0°F15.0°C 58.5°F14.7°C 98% 2.4 mph S3.9 kmh S 4.0 mph6.4 kmh 29.89 in1012.2 mb 0.00 in0.0 mm 0.00 in0.0 mm 0.00 in0.0 mm
07:45 AM 59.2°F15.1°C 58.6°F14.8°C 98% 2.3 mph SSW3.7 kmh SSW 5.1 mph8.2 kmh 29.89 in1012.2 mb 0.00 in0.0 mm 0.00 in0.0 mm 0.00 in0.0 mm
07:50 AM 59.4°F15.2°C 58.8°F14.9°C 98% 3.4 mph SE5.5 kmh SE -- 29.86 in1011.2 mb 0.00 in0.0 mm 0.00 in0.0 mm 0.00 in0.0 mm
07:55 AM 59.4°F15.2°C 58.8°F14.9°C 98% 2.0 mph S3.2 kmh S 3.8 mph6.1 kmh 29.89 in1012.2 mb 0.00 in0.0 mm 0.00 in0.0 mm 0.00 in0.0 mm
08:00 AM 59.5°F15.3°C 58.9°F14.9°C 98% 2.1 mph SE3.4 kmh SE 4.0 mph6.4 kmh 29.89 in1012.2 mb 0.00 in0.0 mm 0.00 in0.0 mm 0.00 in0.0 mm
08:05 AM 59.5°F15.3°C 59.0°F15.0°C 98% 2.4 mph S3.9 kmh S 4.5 mph7.2 kmh 29.89 in1012.2 mb 0.00 in0.0 mm 0.00 in0.0 mm 0.00 in0.0 mm
08:10 AM 59.6°F15.3°C 59.1°F15.1°C 98% 1.4 mph S2.3 kmh S 2.7 mph4.3 kmh 29.89 in1012.2 mb 0.00 in0.0 mm 0.00 in0.0 mm 0.00 in0.0 mm
08:15 AM 59.9°F15.5°C 59.3°F15.2°C 98% 1.5 mph SSE2.4 kmh SSE 4.5 mph7.2 kmh 29.89 in1012.2 mb 0.00 in0.0 mm 0.00 in0.0 mm 0.00 in0.0 mm
08:20 AM 60.1°F15.6°C 59.6°F15.3°C 98% 2.2 mph SSW3.5 kmh SSW 5.6 mph9.0 kmh 29.91 in1012.9 mb 0.00 in0.0 mm 0.00 in0.0 mm 0.00 in0.0 mm
08:25 AM 60.4°F15.8°C 59.9°F15.5°C 98% 2.0 mph SSW3.2 kmh SSW 5.1 mph8.2 kmh 29.92 in1013.2 mb 0.00 in0.0 mm 0.00 in0.0 mm 0.00 in0.0 mm
08:30 AM 60.6°F15.9°C 60.1°F15.6°C 98% 3.2 mph SSW5.1 kmh SSW 5.4 mph8.7 kmh 29.92 in1013.2 mb 0.00 in0.0 mm 0.00 in0.0 mm 0.00 in0.0 mm
08:35 AM 60.6°F15.9°C 60.1°F15.6°C 98% 2.2 mph SW3.5 kmh SW 3.8 mph6.1 kmh 29.92 in1013.2 mb 0.00 in0.0 mm 0.00 in0.0 mm 0.00 in0.0 mm
08:40 AM 60.6°F15.9°C 60.1°F15.6°C 98% 2.6 mph SSW4.2 kmh SSW 6.0 mph9.7 kmh 29.92 in1013.2 mb 0.00 in0.0 mm 0.00 in0.0 mm 0.00 in0.0 mm
08:45 AM 60.6°F15.9°C 60.1°F15.6°C 98% 3.2 mph SW5.1 kmh SW 6.7 mph10.8 kmh 29.92 in1013.2 mb 0.00 in0.0 mm 0.00 in0.0 mm 0.00 in0.0 mm
08:50 AM 60.8°F16.0°C 60.2°F15.7°C 98% 2.7 mph SW4.3 kmh SW 5.1 mph8.2 kmh 29.92 in1013.2 mb 0.00 in0.0 mm 0.00 in0.0 mm 0.00 in0.0 mm
08:55 AM 61.0°F16.1°C 60.4°F15.8°C 98% 3.0 mph S4.8 kmh S 4.9 mph7.9 kmh 29.92 in1013.2 mb 0.00 in0.0 mm 0.00 in0.0 mm 0.00 in0.0 mm
09:00 AM 61.2°F16.2°C 60.6°F15.9°C 98% 2.7 mph SSW4.3 kmh SSW 4.0 mph6.4 kmh 29.92 in1013.2 mb 0.00 in0.0 mm 0.00 in0.0 mm 0.00 in0.0 mm
09:05 AM 61.4°F16.3°C 60.8°F16.0°C 98% 3.2 mph SW5.1 kmh SW 5.8 mph9.3 kmh 29.92 in1013.2 mb 0.00 in0.0 mm 0.00 in0.0 mm 0.00 in0.0 mm
09:10 AM 61.5°F16.4°C 60.9°F16.1°C 98% 3.1 mph SSW5.0 kmh SSW 6.9 mph11.1 kmh 29.92 in1013.2 mb 0.00 in0.0 mm 0.00 in0.0 mm 0.00 in0.0 mm
09:15 AM 61.5°F16.4°C 60.9°F16.1°C 98% 3.6 mph SSW5.8 kmh SSW 8.5 mph13.7 kmh 29.92 in1013.2 mb 0.00 in0.0 mm 0.00 in0.0 mm 0.00 in0.0 mm
09:20 AM 61.4°F16.3°C 60.9°F16.1°C 98% 3.8 mph SW6.1 kmh SW 8.1 mph13.0 kmh 29.92 in1013.2 mb 0.00 in0.0 mm 0.00 in0.0 mm 0.00 in0.0 mm
09:25 AM 61.5°F16.4°C 60.9°F16.1°C 98% 3.2 mph SW5.1 kmh SW 6.9 mph11.1 kmh 29.92 in1013.2 mb 0.00 in0.0 mm 0.00 in0.0 mm 0.00 in0.0 mm
09:30 AM 61.3°F16.3°C 60.7°F15.9°C 98% 4.7 mph SW7.6 kmh SW 9.8 mph15.8 kmh 29.92 in1013.2 mb 0.00 in0.0 mm 0.00 in0.0 mm 0.00 in0.0 mm
09:35 AM 60.9°F16.1°C 60.3°F15.7°C 98% 4.6 mph SW7.4 kmh SW 11.2 mph18.0 kmh 29.94 in1013.9 mb 0.00 in0.0 mm 0.00 in0.0 mm 0.00 in0.0 mm
09:40 AM 60.2°F15.7°C 59.6°F15.3°C 98% 4.7 mph SW7.6 kmh SW 8.7 mph14.0 kmh 29.95 in1014.2 mb 0.00 in0.0 mm 0.00 in0.0 mm 0.00 in0.0 mm
09:45 AM 60.0°F15.6°C 59.4°F15.2°C 98% 4.5 mph SW7.2 kmh SW 6.9 mph11.1 kmh 29.95 in1014.2 mb 0.00 in0.0 mm 0.00 in0.0 mm 0.00 in0.0 mm
09:50 AM 59.9°F15.5°C 59.3°F15.2°C 98% 3.2 mph SW5.1 kmh SW 6.7 mph10.8 kmh 29.95 in1014.2 mb 0.00 in0.0 mm 0.00 in0.0 mm 0.00 in0.0 mm
09:55 AM 59.9°F15.5°C 59.3°F15.2°C 98% 3.7 mph SW6.0 kmh SW 8.1 mph13.0 kmh 29.95 in1014.2 mb 0.00 in0.0 mm 0.00 in0.0 mm 0.00 in0.0 mm
10:00 AM 60.0°F15.6°C 59.5°F15.3°C 98% 3.2 mph WSW5.1 kmh WSW 5.4 mph8.7 kmh 29.95 in1014.2 mb 0.00 in0.0 mm 0.00 in0.0 mm 0.00 in0.0 mm
10:05 AM 60.0°F15.6°C 59.5°F15.3°C 98% 3.4 mph SW5.5 kmh SW 6.0 mph9.7 kmh 29.95 in1014.2 mb 0.00 in0.0 mm 0.00 in0.0 mm 0.00 in0.0 mm
10:10 AM 59.5°F15.3°C 58.9°F14.9°C 98% 3.5 mph SW5.6 kmh SW 5.6 mph9.0 kmh 29.95 in1014.2 mb 0.00 in0.0 mm 0.00 in0.0 mm 0.00 in0.0 mm
10:15 AM 59.4°F15.2°C 58.8°F14.9°C 98% 2.8 mph SW4.5 kmh SW 5.6 mph9.0 kmh 29.95 in1014.2 mb 0.00 in0.0 mm 0.00 in0.0 mm 0.00 in0.0 mm
10:20 AM 59.5°F15.3°C 58.9°F14.9°C 98% 2.6 mph SW4.2 kmh SW 4.5 mph7.2 kmh 29.95 in1014.2 mb 0.00 in0.0 mm 0.00 in0.0 mm 0.00 in0.0 mm
10:25 AM 59.7°F15.4°C 59.1°F15.1°C 98% 2.6 mph SSW4.2 kmh SSW 4.3 mph6.9 kmh 29.95 in1014.2 mb 0.00 in0.0 mm 0.00 in0.0 mm 0.00 in0.0 mm
10:30 AM 60.3°F15.7°C 59.8°F15.4°C 98% 2.5 mph SSW4.0 kmh SSW 4.3 mph6.9 kmh 29.95 in1014.2 mb 0.00 in0.0 mm 0.00 in0.0 mm 0.00 in0.0 mm
10:35 AM 60.8°F16.0°C 60.2°F15.7°C 98% 2.8 mph SSW4.5 kmh SSW 7.4 mph11.9 kmh 29.95 in1014.2 mb 0.00 in0.0 mm 0.00 in0.0 mm 0.00 in0.0 mm
10:40 AM 61.0°F16.1°C 60.4°F15.8°C 98% 2.8 mph SSW4.5 kmh SSW 5.1 mph8.2 kmh 29.95 in1014.2 mb 0.00 in0.0 mm 0.00 in0.0 mm 0.00 in0.0 mm
10:45 AM 60.9°F16.1°C 60.4°F15.8°C 98% 3.1 mph S5.0 kmh S 6.5 mph10.5 kmh 29.95 in1014.2 mb 0.00 in0.0 mm 0.00 in0.0 mm 0.00 in0.0 mm
10:50 AM 60.8°F16.0°C 60.3°F15.7°C 98% 3.0 mph SW4.8 kmh SW 6.3 mph10.1 kmh 29.95 in1014.2 mb 0.00 in0.0 mm 0.00 in0.0 mm 0.00 in0.0 mm
10:55 AM 60.6°F15.9°C 60.0°F15.6°C 98% 4.7 mph SW7.6 kmh SW 8.3 mph13.4 kmh 29.95 in1014.2 mb 0.04 in1.0 mm 0.48 in12.2 mm 0.04 in1.0 mm
11:00 AM 60.4°F15.8°C 59.8°F15.4°C 98% 5.0 mph SW8.0 kmh SW 9.4 mph15.1 kmh 29.95 in1014.2 mb 0.04 in1.0 mm 0.00 in0.0 mm 0.04 in1.0 mm
11:05 AM 60.2°F15.7°C 59.5°F15.3°C 98% 4.8 mph SW7.7 kmh SW 10.3 mph16.6 kmh 29.95 in1014.2 mb 0.04 in1.0 mm 0.00 in0.0 mm 0.04 in1.0 mm
11:10 AM 59.9°F15.5°C 59.3°F15.2°C 98% 4.2 mph SW6.8 kmh SW 9.2 mph14.8 kmh 29.95 in1014.2 mb 0.04 in1.0 mm 0.00 in0.0 mm 0.04 in1.0 mm
11:15 AM 59.7°F15.4°C 59.2°F15.1°C 98% 4.1 mph SSW6.6 kmh SSW 7.6 mph12.2 kmh 29.95 in1014.2 mb 0.04 in1.0 mm 0.00 in0.0 mm 0.04 in1.0 mm
11:20 AM 59.6°F15.3°C 59.1°F15.1°C 98% 4.5 mph S7.2 kmh S 10.1 mph16.3 kmh 29.93 in1013.5 mb 0.00 in0.0 mm 0.00 in0.0 mm 0.04 in1.0 mm
11:25 AM 59.5°F15.3°C 58.9°F14.9°C 98% 3.8 mph SSW6.1 kmh SSW 6.5 mph10.5 kmh 29.92 in1013.2 mb 0.00 in0.0 mm 0.00 in0.0 mm 0.04 in1.0 mm
11:30 AM 59.4°F15.2°C 58.8°F14.9°C 98% 4.2 mph SSW6.8 kmh SSW 8.7 mph14.0 kmh 29.92 in1013.2 mb 0.00 in0.0 mm 0.00 in0.0 mm 0.04 in1.0 mm
11:35 AM 59.5°F15.3°C 58.9°F14.9°C 98% 2.9 mph SW4.7 kmh SW 5.1 mph8.2 kmh 29.92 in1013.2 mb 0.00 in0.0 mm 0.00 in0.0 mm 0.04 in1.0 mm
11:40 AM 59.7°F15.4°C 59.2°F15.1°C 98% 3.5 mph S5.6 kmh S 6.5 mph10.5 kmh 29.92 in1013.2 mb 0.00 in0.0 mm 0.00 in0.0 mm 0.04 in1.0 mm
11:45 AM 60.0°F15.6°C 59.4°F15.2°C 98% 2.6 mph S4.2 kmh S 8.7 mph14.0 kmh 29.92 in1013.2 mb 0.00 in0.0 mm 0.00 in0.0 mm 0.04 in1.0 mm
11:50 AM 60.1°F15.6°C 59.6°F15.3°C 98% 2.8 mph SSW4.5 kmh SSW 5.6 mph9.0 kmh 29.92 in1013.2 mb 0.00 in0.0 mm 0.00 in0.0 mm 0.04 in1.0 mm
11:55 AM 60.3°F15.7°C 59.7°F15.4°C 98% 3.1 mph SW5.0 kmh SW 6.0 mph9.7 kmh 29.92 in1013.2 mb 0.00 in0.0 mm 0.00 in0.0 mm 0.04 in1.0 mm
12:00 PM 60.4°F15.8°C 59.8°F15.4°C 98% 2.9 mph SW4.7 kmh SW 7.4 mph11.9 kmh 29.92 in1013.2 mb 0.00 in0.0 mm 0.00 in0.0 mm 0.04 in1.0 mm
12:05 PM 60.4°F15.8°C 59.8°F15.4°C 98% 3.8 mph SSW6.1 kmh SSW 7.4 mph11.9 kmh 29.90 in1012.5 mb 0.00 in0.0 mm 0.00 in0.0 mm 0.04 in1.0 mm
12:10 PM 60.4°F15.8°C 59.9°F15.5°C 98% 3.4 mph S5.5 kmh S 7.6 mph12.2 kmh 29.89 in1012.2 mb 0.00 in0.0 mm 0.00 in0.0 mm 0.04 in1.0 mm
12:15 PM 60.4°F15.8°C 59.9°F15.5°C 98% 4.2 mph S6.8 kmh S 9.4 mph15.1 kmh 29.89 in1012.2 mb 0.00 in0.0 mm 0.00 in0.0 mm 0.04 in1.0 mm
12:20 PM 60.8°F16.0°C 60.2°F15.7°C 98% 2.9 mph SW4.7 kmh SW 4.5 mph7.2 kmh 29.89 in1012.2 mb 0.00 in0.0 mm 0.00 in0.0 mm 0.04 in1.0 mm
12:25 PM 61.0°F16.1°C 60.4°F15.8°C 98% 3.4 mph SSW5.5 kmh SSW 6.3 mph10.1 kmh 29.89 in1012.2 mb 0.00 in0.0 mm 0.00 in0.0 mm 0.04 in1.0 mm
12:30 PM 61.2°F16.2°C 60.6°F15.9°C 98% 3.2 mph SW5.1 kmh SW 5.1 mph8.2 kmh 29.89 in1012.2 mb 0.00 in0.0 mm 0.00 in0.0 mm 0.04 in1.0 mm
12:35 PM 61.2°F16.2°C 60.6°F15.9°C 98% 3.4 mph SSW5.5 kmh SSW 7.4 mph11.9 kmh 29.89 in1012.2 mb 0.00 in0.0 mm 0.00 in0.0 mm 0.04 in1.0 mm
12:40 PM 60.9°F16.1°C 60.4°F15.8°C 98% 4.9 mph SW7.9 kmh SW 12.5 mph20.1 kmh 29.89 in1012.2 mb 0.05 in1.3 mm 0.60 in15.2 mm 0.09 in2.3 mm
12:45 PM 60.7°F15.9°C 60.2°F15.7°C 98% 4.0 mph SW6.4 kmh SW 8.7 mph14.0 kmh 29.89 in1012.2 mb 0.05 in1.3 mm 0.00 in0.0 mm 0.09 in2.3 mm
12:50 PM 60.5°F15.8°C 59.9°F15.5°C 98% 4.9 mph SW7.9 kmh SW 13.6 mph21.9 kmh 29.89 in1012.2 mb 0.05 in1.3 mm 0.00 in0.0 mm 0.09 in2.3 mm
12:55 PM 60.4°F15.8°C 59.9°F15.5°C 98% 4.3 mph SSW6.9 kmh SSW 8.7 mph14.0 kmh 29.89 in1012.2 mb 0.05 in1.3 mm 0.00 in0.0 mm 0.09 in2.3 mm
01:00 PM 60.4°F15.8°C 59.9°F15.5°C 98% 4.9 mph SSW7.9 kmh SSW 8.7 mph14.0 kmh 29.89 in1012.2 mb 0.05 in1.3 mm 0.00 in0.0 mm 0.09 in2.3 mm
01:05 PM 60.3°F15.7°C 59.7°F15.4°C 98% 4.2 mph S6.8 kmh S 6.9 mph11.1 kmh 29.89 in1012.2 mb 0.08 in2.0 mm 0.36 in9.1 mm 0.12 in3.0 mm
01:10 PM 60.3°F15.7°C 59.7°F15.4°C 98% 4.2 mph SSW6.8 kmh SSW 7.8 mph12.6 kmh 29.89 in1012.2 mb 0.08 in2.0 mm 0.00 in0.0 mm 0.12 in3.0 mm
01:15 PM 60.4°F15.8°C 59.8°F15.4°C 98% 3.7 mph S6.0 kmh S 6.7 mph10.8 kmh 29.89 in1012.2 mb 0.08 in2.0 mm 0.00 in0.0 mm 0.12 in3.0 mm
01:20 PM 60.6°F15.9°C 60.0°F15.6°C 98% 3.9 mph SW6.3 kmh SW 8.1 mph13.0 kmh 29.89 in1012.2 mb 0.04 in1.0 mm 0.00 in0.0 mm 0.16 in4.1 mm
01:25 PM 60.4°F15.8°C 59.9°F15.5°C 98% 4.8 mph SSW7.7 kmh SSW 9.2 mph14.8 kmh 29.89 in1012.2 mb 0.04 in1.0 mm 0.00 in0.0 mm 0.16 in4.1 mm
01:30 PM 60.6°F15.9°C 60.0°F15.6°C 98% 4.0 mph SSW6.4 kmh SSW 5.8 mph9.3 kmh 29.89 in1012.2 mb 0.04 in1.0 mm 0.00 in0.0 mm 0.16 in4.1 mm
01:35 PM 60.7°F15.9°C 60.1°F15.6°C 98% 3.7 mph SSW6.0 kmh SSW 9.2 mph14.8 kmh 29.89 in1012.2 mb 0.08 in2.0 mm 0.48 in12.2 mm 0.21 in5.3 mm
01:40 PM 60.8°F16.0°C 60.3°F15.7°C 98% 4.1 mph SSW6.6 kmh SSW 7.4 mph11.9 kmh 29.89 in1012.2 mb 0.08 in2.0 mm 0.00 in0.0 mm 0.21 in5.3 mm
01:45 PM 61.0°F16.1°C 60.4°F15.8°C 98% 4.3 mph S6.9 kmh S 8.5 mph13.7 kmh 29.89 in1012.2 mb 0.08 in2.0 mm 0.00 in0.0 mm 0.21 in5.3 mm
01:50 PM 61.0°F16.1°C 60.4°F15.8°C 98% 3.8 mph S6.1 kmh S 7.6 mph12.2 kmh 29.89 in1012.2 mb 0.08 in2.0 mm 0.00 in0.0 mm 0.21 in5.3 mm
01:55 PM 61.0°F16.1°C 60.4°F15.8°C 98% 3.9 mph S6.3 kmh S 7.8 mph12.6 kmh 29.89 in1012.2 mb 0.08 in2.0 mm 0.00 in0.0 mm 0.21 in5.3 mm
02:00 PM 61.0°F16.1°C 60.4°F15.8°C 98% 5.1 mph SSW8.2 kmh SSW 10.1 mph16.3 kmh 29.89 in1012.2 mb 0.12 in3.0 mm 0.04 in1.0 mm 0.25 in6.4 mm
02:05 PM 61.0°F16.1°C 60.4°F15.8°C 98% 3.8 mph SW6.1 kmh SW 7.8 mph12.6 kmh 29.89 in1012.2 mb 0.12 in3.0 mm 0.00 in0.0 mm 0.25 in6.4 mm
02:10 PM 61.0°F16.1°C 60.4°F15.8°C 98% 4.1 mph SSW6.6 kmh SSW 8.3 mph13.4 kmh 29.89 in1012.2 mb 0.12 in3.0 mm 0.00 in0.0 mm 0.25 in6.4 mm
02:15 PM 61.0°F16.1°C 60.4°F15.8°C 98% 3.8 mph SSW6.1 kmh SSW 11.2 mph18.0 kmh 29.89 in1012.2 mb 0.12 in3.0 mm 0.00 in0.0 mm 0.25 in6.4 mm
02:20 PM 61.0°F16.1°C 60.4°F15.8°C 98% 4.4 mph SSW7.1 kmh SSW 8.1 mph13.0 kmh 29.89 in1012.2 mb 0.00 in0.0 mm 0.00 in0.0 mm 0.25 in6.4 mm
02:25 PM 60.8°F16.0°C 60.2°F15.7°C 98% 6.0 mph SSW9.7 kmh SSW 11.4 mph18.3 kmh 29.89 in1012.2 mb 0.00 in0.0 mm 0.00 in0.0 mm 0.25 in6.4 mm
02:30 PM 60.8°F16.0°C 60.2°F15.7°C 98% 5.2 mph S8.4 kmh S 11.6 mph18.7 kmh 29.89 in1012.2 mb 0.04 in1.0 mm 0.48 in12.2 mm 0.29 in7.4 mm
02:35 PM 60.8°F16.0°C 60.2°F15.7°C 98% 4.2 mph SSW6.8 kmh SSW 7.8 mph12.6 kmh 29.89 in1012.2 mb 0.04 in1.0 mm 0.00 in0.0 mm 0.29 in7.4 mm
02:40 PM 60.8°F16.0°C 60.2°F15.7°C 98% 4.2 mph SW6.8 kmh SW 10.1 mph16.3 kmh 29.89 in1012.2 mb 0.04 in1.0 mm 0.00 in0.0 mm 0.29 in7.4 mm
02:45 PM 60.8°F16.0°C 60.2°F15.7°C 98% 4.2 mph SW6.8 kmh SW 6.7 mph10.8 kmh 29.89 in1012.2 mb 0.04 in1.0 mm 0.00 in0.0 mm 0.29 in7.4 mm
02:50 PM 60.8°F16.0°C 60.2°F15.7°C 98% 3.3 mph SW5.3 kmh SW 7.4 mph11.9 kmh 29.89 in1012.2 mb 0.04 in1.0 mm 0.00 in0.0 mm 0.29 in7.4 mm
02:55 PM 60.7°F15.9°C 60.1°F15.6°C 98% 5.0 mph SSW8.0 kmh SSW 9.2 mph14.8 kmh 29.89 in1012.2 mb 0.04 in1.0 mm 0.00 in0.0 mm 0.29 in7.4 mm
03:00 PM 60.8°F16.0°C 60.2°F15.7°C 98% 3.5 mph SW5.6 kmh SW 8.5 mph13.7 kmh 29.89 in1012.2 mb 0.04 in1.0 mm 0.00 in0.0 mm 0.29 in7.4 mm
03:05 PM 60.9°F16.1°C 60.3°F15.7°C 98% 4.7 mph SW7.6 kmh SW 10.7 mph17.2 kmh 29.87 in1011.5 mb 0.04 in1.0 mm 0.00 in0.0 mm 0.29 in7.4 mm
03:10 PM 61.0°F16.1°C 60.4°F15.8°C 98% 4.1 mph S6.6 kmh S 8.3 mph13.4 kmh 29.86 in1011.2 mb 0.04 in1.0 mm 0.00 in0.0 mm 0.29 in7.4 mm
03:15 PM 61.2°F16.2°C 60.6°F15.9°C 98% 4.0 mph SW6.4 kmh SW 13.6 mph21.9 kmh 29.86 in1011.2 mb 0.04 in1.0 mm 0.00 in0.0 mm 0.29 in7.4 mm
03:20 PM 61.2°F16.2°C 60.6°F15.9°C 98% 6.2 mph S10.0 kmh S 11.0 mph17.7 kmh 29.86 in1011.2 mb 0.00 in0.0 mm 0.00 in0.0 mm 0.29 in7.4 mm
03:25 PM 61.2°F16.2°C 60.7°F15.9°C 98% 4.0 mph SSW6.4 kmh SSW 8.5 mph13.7 kmh 29.86 in1011.2 mb 0.00 in0.0 mm 0.00 in0.0 mm 0.29 in7.4 mm
03:30 PM 61.3°F16.3°C 60.8°F16.0°C 98% 4.7 mph WSW7.6 kmh WSW 9.2 mph14.8 kmh 29.86 in1011.2 mb 0.00 in0.0 mm 0.00 in0.0 mm 0.29 in7.4 mm
03:35 PM 61.3°F16.3°C 60.8°F16.0°C 98% 5.1 mph S8.2 kmh S 10.3 mph16.6 kmh 29.88 in1011.9 mb 0.00 in0.0 mm 0.00 in0.0 mm 0.29 in7.4 mm
03:40 PM 61.5°F16.4°C 60.9°F16.1°C 98% 4.8 mph SSW7.7 kmh SSW 10.7 mph17.2 kmh 29.89 in1012.2 mb 0.00 in0.0 mm 0.00 in0.0 mm 0.29 in7.4 mm
03:45 PM 61.4°F16.3°C 60.8°F16.0°C 98% 5.1 mph S8.2 kmh S 11.2 mph18.0 kmh 29.89 in1012.2 mb 0.00 in0.0 mm 0.00 in0.0 mm 0.29 in7.4 mm
03:50 PM 61.4°F16.3°C 60.8°F16.0°C 98% 5.5 mph S8.9 kmh S 12.3 mph19.8 kmh 29.87 in1011.5 mb 0.00 in0.0 mm 0.00 in0.0 mm 0.29 in7.4 mm
03:55 PM 61.3°F16.3°C 60.8°F16.0°C 98% 4.1 mph SSW6.6 kmh SSW 7.8 mph12.6 kmh 29.86 in1011.2 mb 0.00 in0.0 mm 0.00 in0.0 mm 0.29 in7.4 mm
04:00 PM 61.3°F16.3°C 60.8°F16.0°C 98% 3.8 mph SSW6.1 kmh SSW 6.9 mph11.1 kmh 29.86 in1011.2 mb 0.00 in0.0 mm 0.00 in0.0 mm 0.29 in7.4 mm
04:05 PM 61.2°F16.2°C 60.7°F15.9°C 98% 5.6 mph S9.0 kmh S 12.8 mph20.6 kmh 29.86 in1011.2 mb 0.05 in1.3 mm 0.60 in15.2 mm 0.34 in8.6 mm
04:10 PM 61.3°F16.3°C 60.7°F15.9°C 98% 4.3 mph S6.9 kmh S 8.7 mph14.0 kmh 29.86 in1011.2 mb 0.05 in1.3 mm 0.00 in0.0 mm 0.34 in8.6 mm
04:15 PM 61.3°F16.3°C 60.8°F16.0°C 98% 4.2 mph SW6.8 kmh SW 7.6 mph12.2 kmh 29.86 in1011.2 mb 0.05 in1.3 mm 0.00 in0.0 mm 0.34 in8.6 mm
04:20 PM 61.2°F16.2°C 60.6°F15.9°C 98% 4.1 mph SSW6.6 kmh SSW 9.2 mph14.8 kmh 29.86 in1011.2 mb 0.00 in0.0 mm 0.00 in0.0 mm 0.34 in8.6 mm
04:25 PM 61.2°F16.2°C 60.6°F15.9°C 98% 4.5 mph SW7.2 kmh SW 10.1 mph16.3 kmh 29.86 in1011.2 mb 0.00 in0.0 mm 0.00 in0.0 mm 0.34 in8.6 mm
04:30 PM 61.1°F16.2°C 60.5°F15.8°C 98% 3.5 mph SSW5.6 kmh SSW 7.8 mph12.6 kmh 29.86 in1011.2 mb 0.00 in0.0 mm 0.00 in0.0 mm 0.34 in8.6 mm
04:35 PM 61.2°F16.2°C 60.6°F15.9°C 98% 5.5 mph S8.9 kmh S 13.2 mph21.2 kmh 29.86 in1011.2 mb 0.00 in0.0 mm 0.00 in0.0 mm 0.34 in8.6 mm
04:40 PM 61.2°F16.2°C 60.6°F15.9°C 98% 5.0 mph SSW8.0 kmh SSW 11.2 mph18.0 kmh 29.86 in1011.2 mb 0.00 in0.0 mm 0.00 in0.0 mm 0.34 in8.6 mm
04:45 PM 61.2°F16.2°C 60.6°F15.9°C 98% 6.0 mph SW9.7 kmh SW 11.9 mph19.2 kmh 29.86 in1011.2 mb 0.00 in0.0 mm 0.00 in0.0 mm 0.34 in8.6 mm
04:50 PM 61.2°F16.2°C 60.6°F15.9°C 98% 5.3 mph SSW8.5 kmh SSW 9.8 mph15.8 kmh 29.86 in1011.2 mb 0.04 in1.0 mm 0.48 in12.2 mm 0.38 in9.7 mm
04:55 PM 61.1°F16.2°C 60.5°F15.8°C 98% 6.1 mph SW9.8 kmh SW 14.3 mph23.0 kmh 29.86 in1011.2 mb 0.04 in1.0 mm 0.00 in0.0 mm 0.38 in9.7 mm
05:00 PM 61.0°F16.1°C 60.4°F15.8°C 98% 5.1 mph SW8.2 kmh SW 14.8 mph23.8 kmh 29.86 in1011.2 mb 0.04 in1.0 mm 0.00 in0.0 mm 0.38 in9.7 mm
05:05 PM 61.0°F16.1°C 60.4°F15.8°C 98% 5.0 mph SW8.0 kmh SW 9.4 mph15.1 kmh 29.86 in1011.2 mb 0.04 in1.0 mm 0.00 in0.0 mm 0.38 in9.7 mm
05:10 PM 61.1°F16.2°C 60.6°F15.9°C 98% 5.0 mph S8.0 kmh S 7.8 mph12.6 kmh 29.86 in1011.2 mb 0.04 in1.0 mm 0.00 in0.0 mm 0.38 in9.7 mm
05:15 PM 61.2°F16.2°C 60.6°F15.9°C 98% 6.0 mph S9.7 kmh S 11.9 mph19.2 kmh 29.86 in1011.2 mb 0.04 in1.0 mm 0.00 in0.0 mm 0.38 in9.7 mm
05:20 PM 61.2°F16.2°C 60.6°F15.9°C 98% 5.6 mph SW9.0 kmh SW 10.7 mph17.2 kmh 29.84 in1010.5 mb 0.00 in0.0 mm 0.00 in0.0 mm 0.38 in9.7 mm
05:25 PM 61.0°F16.1°C 60.4°F15.8°C 98% 4.3 mph SW6.9 kmh SW 8.9 mph14.3 kmh 29.83 in1010.2 mb 0.00 in0.0 mm 0.00 in0.0 mm 0.38 in9.7 mm
05:30 PM 61.0°F16.1°C 60.4°F15.8°C 98% 4.2 mph SW6.8 kmh SW 10.1 mph16.3 kmh 29.83 in1010.2 mb 0.00 in0.0 mm 0.00 in0.0 mm 0.38 in9.7 mm
05:35 PM 61.0°F16.1°C 60.4°F15.8°C 98% 6.0 mph SSW9.7 kmh SSW 13.4 mph21.6 kmh 29.85 in1010.8 mb 0.00 in0.0 mm 0.00 in0.0 mm 0.38 in9.7 mm
05:40 PM 60.9°F16.1°C 60.3°F15.7°C 98% 4.6 mph SSW7.4 kmh SSW 10.1 mph16.3 kmh 29.86 in1011.2 mb 0.00 in0.0 mm 0.00 in0.0 mm 0.38 in9.7 mm
05:45 PM 60.8°F16.0°C 60.2°F15.7°C 98% 4.3 mph SW6.9 kmh SW 8.7 mph14.0 kmh 29.86 in1011.2 mb 0.00 in0.0 mm 0.00 in0.0 mm 0.38 in9.7 mm
05:50 PM 60.8°F16.0°C 60.2°F15.7°C 98% 5.5 mph SW8.9 kmh SW 8.9 mph14.3 kmh 29.84 in1010.5 mb 0.00 in0.0 mm 0.00 in0.0 mm 0.38 in9.7 mm
05:55 PM 60.8°F16.0°C 60.2°F15.7°C 98% 5.2 mph SW8.4 kmh SW 7.8 mph12.6 kmh 29.83 in1010.2 mb 0.00 in0.0 mm 0.00 in0.0 mm 0.38 in9.7 mm
06:00 PM 60.8°F16.0°C 60.2°F15.7°C 98% 5.3 mph SW8.5 kmh SW 12.3 mph19.8 kmh 29.83 in1010.2 mb 0.03 in0.8 mm 0.03 in0.8 mm 0.41 in10.4 mm
06:05 PM 61.0°F16.1°C 60.4°F15.8°C 98% 6.5 mph SW10.5 kmh SW 11.9 mph19.2 kmh 29.83 in1010.2 mb 0.03 in0.8 mm 0.00 in0.0 mm 0.41 in10.4 mm
06:10 PM 61.0°F16.1°C 60.4°F15.8°C 98% 6.9 mph SSW11.1 kmh SSW 17.2 mph27.7 kmh 29.83 in1010.2 mb 0.03 in0.8 mm 0.00 in0.0 mm 0.41 in10.4 mm
06:15 PM 61.0°F16.1°C 60.4°F15.8°C 98% 5.1 mph SW8.2 kmh SW 11.9 mph19.2 kmh 29.83 in1010.2 mb 0.03 in0.8 mm 0.00 in0.0 mm 0.41 in10.4 mm
06:20 PM 61.0°F16.1°C 60.4°F15.8°C 98% 5.8 mph SW9.3 kmh SW 10.5 mph16.9 kmh 29.83 in1010.2 mb 0.00 in0.0 mm 0.00 in0.0 mm 0.41 in10.4 mm
06:25 PM 61.0°F16.1°C 60.4°F15.8°C 98% 4.8 mph SSW7.7 kmh SSW 13.0 mph20.9 kmh 29.83 in1010.2 mb 0.00 in0.0 mm 0.00 in0.0 mm 0.41 in10.4 mm
06:30 PM 61.0°F16.1°C 60.4°F15.8°C 98% 5.6 mph SW9.0 kmh SW 8.5 mph13.7 kmh 29.83 in1010.2 mb 0.00 in0.0 mm 0.00 in0.0 mm 0.41 in10.4 mm
06:35 PM 61.0°F16.1°C 60.4°F15.8°C 98% 5.4 mph SW8.7 kmh SW 12.5 mph20.1 kmh 29.83 in1010.2 mb 0.00 in0.0 mm 0.00 in0.0 mm 0.41 in10.4 mm
06:40 PM 61.0°F16.1°C 60.4°F15.8°C 98% 4.8 mph SW7.7 kmh SW 13.2 mph21.2 kmh 29.83 in1010.2 mb 0.00 in0.0 mm 0.00 in0.0 mm 0.41 in10.4 mm
06:45 PM 61.0°F16.1°C 60.4°F15.8°C 98% 5.0 mph SW8.0 kmh SW 8.3 mph13.4 kmh 29.83 in1010.2 mb 0.00 in0.0 mm 0.00 in0.0 mm 0.41 in10.4 mm
06:50 PM 61.0°F16.1°C 60.4°F15.8°C 98% 5.0 mph SSW8.0 kmh SSW 11.9 mph19.2 kmh 29.83 in1010.2 mb 0.00 in0.0 mm 0.00 in0.0 mm 0.41 in10.4 mm
06:55 PM 61.0°F16.1°C 60.4°F15.8°C 98% 5.1 mph SW8.2 kmh SW 9.8 mph15.8 kmh 29.83 in1010.2 mb 0.00 in0.0 mm 0.00 in0.0 mm 0.41 in10.4 mm
07:00 PM 61.0°F16.1°C 60.4°F15.8°C 98% 5.4 mph S8.7 kmh S 9.8 mph15.8 kmh 29.83 in1010.2 mb 0.00 in0.0 mm 0.00 in0.0 mm 0.41 in10.4 mm
07:05 PM 61.0°F16.1°C 60.4°F15.8°C 98% 5.3 mph SSW8.5 kmh SSW 9.4 mph15.1 kmh 29.83 in1010.2 mb 0.00 in0.0 mm 0.00 in0.0 mm 0.41 in10.4 mm
07:10 PM 61.0°F16.1°C 60.4°F15.8°C 98% 4.6 mph SSW7.4 kmh SSW 12.5 mph20.1 kmh 29.83 in1010.2 mb 0.04 in1.0 mm 0.48 in12.2 mm 0.45 in11.4 mm
07:15 PM 61.0°F16.1°C 60.4°F15.8°C 98% 5.0 mph SW8.0 kmh SW 8.7 mph14.0 kmh 29.83 in1010.2 mb 0.04 in1.0 mm 0.00 in0.0 mm 0.45 in11.4 mm
07:20 PM 61.0°F16.1°C 60.4°F15.8°C 98% 5.9 mph SSW9.5 kmh SSW 11.2 mph18.0 kmh 29.83 in1010.2 mb 0.00 in0.0 mm 0.00 in0.0 mm 0.45 in11.4 mm
07:25 PM 61.0°F16.1°C 60.4°F15.8°C 98% 5.2 mph SW8.4 kmh SW 10.5 mph16.9 kmh 29.83 in1010.2 mb 0.00 in0.0 mm 0.00 in0.0 mm 0.45 in11.4 mm
07:30 PM 61.0°F16.1°C 60.4°F15.8°C 98% 6.4 mph S10.3 kmh S 13.0 mph20.9 kmh 29.83 in1010.2 mb 0.04 in1.0 mm 0.48 in12.2 mm 0.50 in12.7 mm
07:35 PM 61.0°F16.1°C 60.5°F15.8°C 98% 5.7 mph SSW9.2 kmh SSW 9.2 mph14.8 kmh 29.83 in1010.2 mb 0.04 in1.0 mm 0.00 in0.0 mm 0.50 in12.7 mm
07:40 PM 61.0°F16.1°C 60.4°F15.8°C 98% 5.3 mph SW8.5 kmh SW 9.4 mph15.1 kmh 29.83 in1010.2 mb 0.04 in1.0 mm 0.00 in0.0 mm 0.50 in12.7 mm
07:45 PM 61.1°F16.2°C 60.5°F15.8°C 98% 5.5 mph SSW8.9 kmh SSW 10.7 mph17.2 kmh 29.83 in1010.2 mb 0.04 in1.0 mm 0.00 in0.0 mm 0.50 in12.7 mm
07:50 PM 61.2°F16.2°C 60.6°F15.9°C 98% 4.1 mph SW6.6 kmh SW 10.1 mph16.3 kmh 29.83 in1010.2 mb 0.08 in2.0 mm 0.48 in12.2 mm 0.54 in13.7 mm
07:55 PM 61.2°F16.2°C 60.6°F15.9°C 98% 4.5 mph SSW7.2 kmh SSW 10.1 mph16.3 kmh 29.83 in1010.2 mb 0.08 in2.0 mm 0.00 in0.0 mm 0.54 in13.7 mm
08:00 PM 61.2°F16.2°C 60.6°F15.9°C 98% 4.1 mph S6.6 kmh S 7.6 mph12.2 kmh 29.83 in1010.2 mb 0.08 in2.0 mm 0.00 in0.0 mm 0.54 in13.7 mm
08:05 PM 61.2°F16.2°C 60.6°F15.9°C 98% 4.8 mph SW7.7 kmh SW 11.0 mph17.7 kmh 29.81 in1009.5 mb 0.08 in2.0 mm 0.00 in0.0 mm 0.54 in13.7 mm
08:10 PM 61.2°F16.2°C 60.6°F15.9°C 98% 5.1 mph SSW8.2 kmh SSW 11.0 mph17.7 kmh 29.80 in1009.1 mb 0.08 in2.0 mm 0.00 in0.0 mm 0.54 in13.7 mm
08:15 PM 61.2°F16.2°C 60.7°F15.9°C 98% 5.8 mph SW9.3 kmh SW 12.5 mph20.1 kmh 29.80 in1009.1 mb 0.08 in2.0 mm 0.00 in0.0 mm 0.54 in13.7 mm
08:20 PM 61.3°F16.3°C 60.8°F16.0°C 98% 4.7 mph SW7.6 kmh SW 11.2 mph18.0 kmh 29.82 in1009.8 mb 0.04 in1.0 mm 0.00 in0.0 mm 0.58 in14.7 mm
08:25 PM 61.3°F16.3°C 60.8°F16.0°C 98% 4.7 mph SW7.6 kmh SW 13.2 mph21.2 kmh 29.83 in1010.2 mb 0.04 in1.0 mm 0.00 in0.0 mm 0.58 in14.7 mm
08:30 PM 61.4°F16.3°C 60.8°F16.0°C 98% 6.5 mph SW10.5 kmh SW 11.0 mph17.7 kmh 29.83 in1010.2 mb 0.04 in1.0 mm 0.00 in0.0 mm 0.58 in14.7 mm
08:35 PM 61.5°F16.4°C 60.9°F16.1°C 98% 5.6 mph SSW9.0 kmh SSW 12.5 mph20.1 kmh 29.83 in1010.2 mb 0.04 in1.0 mm 0.00 in0.0 mm 0.58 in14.7 mm
08:40 PM 61.5°F16.4°C 60.9°F16.1°C 98% 5.1 mph SSW8.2 kmh SSW 9.4 mph15.1 kmh 29.83 in1010.2 mb 0.04 in1.0 mm 0.00 in0.0 mm 0.58 in14.7 mm
08:45 PM 61.5°F16.4°C 60.9°F16.1°C 98% 4.0 mph SW6.4 kmh SW 8.9 mph14.3 kmh 29.83 in1010.2 mb 0.04 in1.0 mm 0.00 in0.0 mm 0.58 in14.7 mm
08:50 PM 61.6°F16.4°C 61.0°F16.1°C 98% 5.3 mph SSW8.5 kmh SSW 7.6 mph12.2 kmh 29.81 in1009.5 mb 0.04 in1.0 mm 0.00 in0.0 mm 0.58 in14.7 mm
08:55 PM 61.7°F16.5°C 61.1°F16.2°C 98% 3.9 mph SSW6.3 kmh SSW 6.9 mph11.1 kmh 29.80 in1009.1 mb 0.04 in1.0 mm 0.00 in0.0 mm 0.58 in14.7 mm
09:00 PM 61.7°F16.5°C 61.1°F16.2°C 98% 5.1 mph SSW8.2 kmh SSW 10.1 mph16.3 kmh 29.80 in1009.1 mb 0.04 in1.0 mm 0.00 in0.0 mm 0.58 in14.7 mm
09:05 PM 61.7°F16.5°C 61.1°F16.2°C 98% 5.1 mph SSW8.2 kmh SSW 9.4 mph15.1 kmh 29.80 in1009.1 mb 0.04 in1.0 mm 0.00 in0.0 mm 0.58 in14.7 mm
09:10 PM 61.7°F16.5°C 61.1°F16.2°C 98% 4.9 mph SSW7.9 kmh SSW 8.1 mph13.0 kmh 29.80 in1009.1 mb 0.04 in1.0 mm 0.00 in0.0 mm 0.58 in14.7 mm
09:15 PM 61.7°F16.5°C 61.1°F16.2°C 98% 5.6 mph SW9.0 kmh SW 14.8 mph23.8 kmh 29.80 in1009.1 mb 0.04 in1.0 mm 0.00 in0.0 mm 0.58 in14.7 mm
09:20 PM 61.7°F16.5°C 61.1°F16.2°C 98% 5.0 mph SW8.0 kmh SW 10.1 mph16.3 kmh 29.80 in1009.1 mb 0.00 in0.0 mm 0.00 in0.0 mm 0.58 in14.7 mm
09:25 PM 61.7°F16.5°C 61.2°F16.2°C 98% 5.8 mph SW9.3 kmh SW 13.2 mph21.2 kmh 29.80 in1009.1 mb 0.00 in0.0 mm 0.00 in0.0 mm 0.58 in14.7 mm
09:30 PM 61.7°F16.5°C 61.1°F16.2°C 98% 5.3 mph SSW8.5 kmh SSW 8.3 mph13.4 kmh 29.80 in1009.1 mb 0.00 in0.0 mm 0.00 in0.0 mm 0.58 in14.7 mm
09:35 PM 61.7°F16.5°C 61.1°F16.2°C 98% 4.8 mph SW7.7 kmh SW 10.3 mph16.6 kmh 29.82 in1009.8 mb 0.00 in0.0 mm 0.00 in0.0 mm 0.58 in14.7 mm
09:40 PM 61.7°F16.5°C 61.1°F16.2°C 98% 4.9 mph SW7.9 kmh SW 8.9 mph14.3 kmh 29.83 in1010.2 mb 0.00 in0.0 mm 0.00 in0.0 mm 0.58 in14.7 mm
09:45 PM 61.7°F16.5°C 61.1°F16.2°C 98% 4.2 mph SSW6.8 kmh SSW 8.7 mph14.0 kmh 29.83 in1010.2 mb 0.00 in0.0 mm 0.00 in0.0 mm 0.58 in14.7 mm
09:50 PM 61.7°F16.5°C 61.1°F16.2°C 98% 4.2 mph SSE6.8 kmh SSE 7.6 mph12.2 kmh 29.83 in1010.2 mb 0.00 in0.0 mm 0.00 in0.0 mm 0.58 in14.7 mm
09:55 PM 61.7°F16.5°C 61.1°F16.2°C 98% 4.2 mph SW6.8 kmh SW 7.4 mph11.9 kmh 29.83 in1010.2 mb 0.00 in0.0 mm 0.00 in0.0 mm 0.58 in14.7 mm
10:00 PM 61.7°F16.5°C 61.1°F16.2°C 98% 5.3 mph SW8.5 kmh SW 11.9 mph19.2 kmh 29.83 in1010.2 mb 0.05 in1.3 mm 0.05 in1.3 mm 0.63 in16.0 mm
10:05 PM 61.7°F16.5°C 61.1°F16.2°C 98% 4.8 mph S7.7 kmh S 11.9 mph19.2 kmh 29.83 in1010.2 mb 0.05 in1.3 mm 0.00 in0.0 mm 0.63 in16.0 mm
10:10 PM 61.7°F16.5°C 61.1°F16.2°C 98% 5.2 mph SSW8.4 kmh SSW 11.9 mph19.2 kmh 29.83 in1010.2 mb 0.05 in1.3 mm 0.00 in0.0 mm 0.63 in16.0 mm
10:15 PM 61.7°F16.5°C 61.1°F16.2°C 98% 5.6 mph SSW9.0 kmh SSW 11.2 mph18.0 kmh 29.83 in1010.2 mb 0.05 in1.3 mm 0.00 in0.0 mm 0.63 in16.0 mm
10:20 PM 61.7°F16.5°C 61.2°F16.2°C 98% 5.8 mph SW9.3 kmh SW 13.6 mph21.9 kmh 29.83 in1010.2 mb 0.00 in0.0 mm 0.00 in0.0 mm 0.63 in16.0 mm
10:25 PM 61.9°F16.6°C 61.3°F16.3°C 98% 4.9 mph SW7.9 kmh SW 8.7 mph14.0 kmh 29.83 in1010.2 mb 0.00 in0.0 mm 0.00 in0.0 mm 0.63 in16.0 mm
10:30 PM 61.9°F16.6°C 61.3°F16.3°C 98% 4.6 mph SW7.4 kmh SW 10.5 mph16.9 kmh 29.83 in1010.2 mb 0.00 in0.0 mm 0.00 in0.0 mm 0.63 in16.0 mm
10:35 PM 61.9°F16.6°C 61.3°F16.3°C 98% 4.0 mph SSW6.4 kmh SSW 12.5 mph20.1 kmh 29.83 in1010.2 mb 0.00 in0.0 mm 0.00 in0.0 mm 0.63 in16.0 mm
10:40 PM 61.9°F16.6°C 61.3°F16.3°C 98% 4.0 mph SW6.4 kmh SW 6.7 mph10.8 kmh 29.83 in1010.2 mb 0.00 in0.0 mm 0.00 in0.0 mm 0.63 in16.0 mm
10:45 PM 61.9°F16.6°C 61.3°F16.3°C 98% 4.9 mph SSW7.9 kmh SSW 11.2 mph18.0 kmh 29.83 in1010.2 mb 0.00 in0.0 mm 0.00 in0.0 mm 0.63 in16.0 mm
10:50 PM 61.9°F16.6°C 61.3°F16.3°C 98% 4.1 mph SSW6.6 kmh SSW 6.7 mph10.8 kmh 29.81 in1009.5 mb 0.00 in0.0 mm 0.00 in0.0 mm 0.63 in16.0 mm
10:55 PM 61.9°F16.6°C 61.3°F16.3°C 98% 4.7 mph SW7.6 kmh SW 11.2 mph18.0 kmh 29.80 in1009.1 mb 0.00 in0.0 mm 0.00 in0.0 mm 0.63 in16.0 mm
11:00 PM 61.9°F16.6°C 61.3°F16.3°C 98% 5.8 mph SW9.3 kmh SW 11.0 mph17.7 kmh 29.80 in1009.1 mb 0.00 in0.0 mm 0.00 in0.0 mm 0.53 in13.5 mm
11:05 PM 62.1°F16.7°C 61.5°F16.4°C 98% 3.9 mph SSW6.3 kmh SSW 9.8 mph15.8 kmh 29.80 in1009.1 mb 0.00 in0.0 mm 0.00 in0.0 mm 0.53 in13.5 mm
11:10 PM 62.1°F16.7°C 61.5°F16.4°C 98% 4.4 mph SW7.1 kmh SW 8.9 mph14.3 kmh 29.80 in1009.1 mb 0.00 in0.0 mm 0.00 in0.0 mm 0.53 in13.5 mm
11:15 PM 62.1°F16.7°C 61.5°F16.4°C 98% 4.2 mph S6.8 kmh S 7.6 mph12.2 kmh 29.80 in1009.1 mb 0.00 in0.0 mm 0.00 in0.0 mm 0.53 in13.5 mm
11:20 PM 62.1°F16.7°C 61.5°F16.4°C 98% 3.9 mph S6.3 kmh S 8.9 mph14.3 kmh 29.78 in1008.5 mb 0.00 in0.0 mm 0.00 in0.0 mm 0.53 in13.5 mm
11:25 PM 62.1°F16.7°C 61.5°F16.4°C 98% 3.6 mph S5.8 kmh S 8.9 mph14.3 kmh 29.77 in1008.1 mb 0.00 in0.0 mm 0.00 in0.0 mm 0.53 in13.5 mm
11:30 PM 62.1°F16.7°C 61.5°F16.4°C 98% 4.0 mph SSW6.4 kmh SSW 6.9 mph11.1 kmh 29.77 in1008.1 mb 0.00 in0.0 mm 0.00 in0.0 mm 0.53 in13.5 mm
11:35 PM 62.1°F16.7°C 61.5°F16.4°C 98% 3.5 mph SW5.6 kmh SW 6.0 mph9.7 kmh 29.77 in1008.1 mb 0.00 in0.0 mm 0.00 in0.0 mm 0.53 in13.5 mm
11:40 PM 62.1°F16.7°C 61.5°F16.4°C 98% 4.0 mph S6.4 kmh S 8.5 mph13.7 kmh 29.77 in1008.1 mb 0.00 in0.0 mm 0.00 in0.0 mm 0.53 in13.5 mm
11:45 PM 62.1°F16.7°C 61.5°F16.4°C 98% 4.4 mph S7.1 kmh S 10.5 mph16.9 kmh 29.77 in1008.1 mb 0.00 in0.0 mm 0.00 in0.0 mm 0.53 in13.5 mm
11:50 PM 62.2°F16.8°C 61.6°F16.4°C 98% 4.3 mph SW6.9 kmh SW 8.7 mph14.0 kmh 29.77 in1008.1 mb 0.00 in0.0 mm 0.00 in0.0 mm 0.53 in13.5 mm
11:55 PM 62.2°F16.8°C 61.7°F16.5°C 98% 2.9 mph SSW4.7 kmh SSW 6.7 mph10.8 kmh 29.77 in1008.1 mb 0.00 in0.0 mm 0.00 in0.0 mm 0.53 in13.5 mm